Tracking 30995 objects as of 6-Jul-2025
HD Live streaming from Space Station
objects crossing your sky now

SL-8 DEB

Track SL-8 DEB now!
10-day predictions


NORAD ID: 29285
Int'l Code: 1981-120P
Perigee: 1,588.8 km
Apogee: 1,668.2 km
Inclination: 83.0 °
Period: 118.7 minutes
Semi major axis: 7999 km
RCS: 0.0058 m2 (small)
Launch date: December 17, 1981
Source: Commonwealth of Independent States (former USSR) (CIS)
Launch site: PLESETSK MISSILE AND SPACE COMPLEX (PKMTR)

Note: This is SATELLITE DEBRIS
Your satellite tracking list
FENGYUN 1C DEB
Track 1 satellite(s)




NASA's NSSDC Master Catalog

Two Line Element Set (TLE):
1 29285U 81120P   25185.15499453  .00000081  00000-0  74703-3 0  9992
2 29285  82.9570 138.4224 0049604  99.8042 285.2844 12.13417117534067
Source of the keplerian elements: AFSPC